Flag for United Kingdom Weather past 2 weeks in Londonderry, Northern Ireland, United Kingdom

Now
57 °F

Cool.


Feels Like: 51 °F
Forecast: 54 / 63 °F
Wind: 31 mph from Southwest

Location: Castlederg

Current Time: Aug 29, 2014 at 9:11:49 AM

Latest Report: Aug 29, 2014 at 8:00 AM


Visibility: 7 mi

Pressure: 29.44 "Hg

Humidity: 85%

Dew point: 52 °F

Location of LondonderryLocation

Historic Weather in Londonderry — Graph

°F

Londonderry temperature yesterday

Maximum temperature yesterday: 65 °F (at 4:00 PM)
Minimum temperature yesterday: 53 °F (at 8:00 AM)
Average temperature yesterday: 59 °F

Past Weeks' High & Low Weather Summary

 TemperatureHumidityPressure
High66 °F (Aug 26, 3:00 PM)100% (Aug 27, 6:00 AM)30.17 "Hg (Aug 27, 6:00 AM)
Low35 °F (Aug 24, 6:00 AM)53% (Aug 22, 6:00 PM)29.35 "Hg (Aug 29, 2:00 AM)
Average54 °F80%29.88 "Hg
* Reported Aug 14 7:00 AM — Aug 29 7:00 AM, Londonderry, Weather by CustomWeather, © 2014

Note: Actual official high and low records may vary slightly from our data, if they occured in-between our weather recording intervals... More about our weather records

Advertising

Londonderry weather history for previous 24 hours

 ConditionsComfort  
Time TempWeatherWind HumidityBarometerVisibility
7:00 AM
Aug 29
55 °FRain. Cloudy.25 mph89%29.41 "Hg3 mi
6:00 AM57 °FCool.23 mph83%29.41 "Hg12 mi
5:00 AM56 °FCool.22 mph84%29.41 "Hg9 mi
4:00 AM57 °FCool.23 mph83%29.38 "Hg22 mi
3:00 AM57 °FRain showers. Overcast.21 mph88%29.38 "Hg6 mi
2:00 AM58 °FRain showers. Overcast.13 mph86%29.35 "Hg17 mi
1:00 AM58 °FCool.12 mph91%29.38 "Hg22 mi
12:00 AM57 °FCool.12 mph93%29.38 "Hg28 mi
11:00 PM
Aug 28
57 °FRain. Overcast.13 mph94%29.38 "Hg8 mi
10:00 PM57 °FRain. Overcast.10 mph92%29.38 "Hg9 mi
9:00 PM57 °FRain. Overcast.8 mph92%29.41 "Hg5 mi
8:00 PM58 °FLight rain. Cloudy.8 mph87%29.41 "Hg6 mi
7:00 PM59 °FLight rain. Cloudy.8 mph80%29.44 "Hg19 mi
6:00 PM60 °FLots of rain. Cloudy.7 mph75%29.47 "Hg12 mi
5:00 PM59 °FCool.6 mph83%29.47 "Hg25 mi
4:00 PM65 °FMild.10 mph60%29.50 "Hg17 mi
3:00 PM63 °FMild.9 mph71%29.54 "Hg19 mi
2:00 PM62 °FRain showers. Cloudy.8 mph69%29.56 "Hg9 mi
1:00 PM63 °FMild.9 mph65%29.57 "Hg14 mi
12:00 PM62 °FCool.10 mph67%29.58 "Hg18 mi
11:00 AM60 °FCool.10 mph76%29.59 "Hg13 mi
10:00 AM58 °FCool.7 mph84%29.60 "Hg8 mi
9:00 AM58 °FCool.6 mph85%29.60 "Hg11 mi
Weather by CustomWeather, © 2014

See weather overviewHow to use our weather pages